"Period start","avg(HW err(1)/warn(2) (#))","avg(Visibility (m))","avg(Weather code (#))","avg(Precip intensity (mm/h))","min(HW err(1)/warn(2) (#))","max(HW err(1)/warn(2) (#))","std(HW err(1)/warn(2) (#))","med(HW err(1)/warn(2) (#))","min(Visibility (m))","max(Visibility (m))","std(Visibility (m))","med(Visibility (m))","min(Weather code (#))","max(Weather code (#))","std(Weather code (#))","med(Weather code (#))","min(Precip intensity (mm/h))","max(Precip intensity (mm/h))","std(Precip intensity (mm/h))","med(Precip intensity (mm/h))"
2016-06-09 00:00:00,0,32590,0,0.00,0,0,0,0,19182,49515,10659,32890,0,0,0,0,0.00,0.00,0.00,0.00
2016-06-09 00:10:00,0,35493,0,0.00,0,0,0,0,26272,44295,5421,34660,0,0,0,0,0.00,0.00,0.00,0.00
2016-06-09 00:20:00,0,33342,0,0.00,0,0,0,0,22627,49430,7399,32037,0,0,0,0,0.00,0.00,0.00,0.00
2016-06-09 00:30:00,0,37584,0,0.00,0,0,0,0,26974,50000,8599,35348,0,0,0,0,0.00,0.00,0.00,0.00
2016-06-09 00:40:00,0,35271,0,0.00,0,0,0,0,24099,42434,5005,35469,0,0,0,0,0.00,0.00,0.00,0.00
2016-06-09 00:50:00,0,35530,0,0.00,0,0,0,0,27289,46528,7153,34270,0,0,0,0,0.00,0.00,0.00,0.00
2016-06-09 01:00:00,0,41538,0,0.00,0,0,0,0,24056,50000,8731,43430,0,0,0,0,0.00,0.00,0.00,0.00
2016-06-09 01:10:00,0,39260,0,0.00,0,0,0,0,25754,50000,6877,40737,0,0,0,0,0.00,0.00,0.00,0.00
2016-06-09 01:20:00,0,37104,0,0.00,0,0,0,0,18693,48427,10224,41343,0,0,0,0,0.00,0.00,0.00,0.00
2016-06-09 01:30:00,0,36298,0,0.00,0,0,0,0,27033,46301,5917,36956,0,0,0,0,0.00,0.00,0.00,0.00
2016-06-09 01:40:00,0,42476,0,0.00,0,2,1,0,36053,50000,5100,41807,0,0,0,0,0.00,0.00,0.00,0.00
2016-06-09 01:50:00,2,35658,0,0.00,2,2,0,2,21664,45214,7717,35855,0,0,0,0,0.00,0.00,0.00,0.00
2016-06-09 02:00:00,2,32330,0,0.00,2,2,0,2,20052,48533,9637,29475,0,0,0,0,0.00,0.00,0.00,0.00
2016-06-09 02:10:00,2,31716,0,0.00,2,2,0,2,24368,40191,5269,32937,0,0,0,0,0.00,0.00,0.00,0.00
2016-06-09 02:20:00,2,38615,0,0.00,2,2,0,2,22791,49831,7867,40368,0,0,0,0,0.00,0.00,0.00,0.00
2016-06-09 02:30:00,2,34875,0,0.00,2,2,0,2,20878,50000,9479,35022,0,0,0,0,0.00,0.00,0.00,0.00
2016-06-09 02:40:00,2,42098,0,0.00,2,2,0,2,23531,50000,8165,45902,0,0,0,0,0.00,0.00,0.00,0.00
2016-06-09 02:50:00,2,37868,0,0.00,2,2,0,2,27542,46049,5097,38385,0,0,0,0,0.00,0.00,0.00,0.00
2016-06-09 03:00:00,2,45232,0,0.00,2,2,0,2,31675,50000,6501,47580,0,0,0,0,0.00,0.00,0.00,0.00
2016-06-09 03:10:00,2,37574,0,0.00,2,2,0,2,27547,50000,5914,37818,0,0,0,0,0.00,0.00,0.00,0.00
2016-06-09 03:20:00,1,44750,0,0.00,0,2,1,2,36005,50000,5605,48060,0,0,0,0,0.00,0.00,0.00,0.00
2016-06-09 03:30:00,2,39624,0,0.00,2,2,0,2,32951,46567,4147,40693,0,0,0,0,0.00,0.00,0.00,0.00
2016-06-09 03:40:00,2,44227,0,0.00,2,2,0,2,25003,50000,7916,48844,0,0,0,0,0.00,0.00,0.00,0.00
2016-06-09 03:50:00,2,44186,0,0.00,2,2,0,2,34483,50000,5957,47174,0,0,0,0,0.00,0.00,0.00,0.00
2016-06-09 04:00:00,2,39506,0,0.00,2,2,0,2,32252,49710,5509,39318,0,0,0,0,0.00,0.00,0.00,0.00
2016-06-09 04:10:00,2,43458,0,0.00,2,2,0,2,27898,50000,7258,45542,0,0,0,0,0.00,0.00,0.00,0.00
2016-06-09 04:20:00,2,39059,0,0.00,2,2,0,2,30159,50000,5483,39475,0,0,0,0,0.00,0.00,0.00,0.00
"Period start","avg(HW err(1)/warn(2) (#))","avg(Visibility (m))","avg(Weather code (#))","avg(Precip intensity (mm/h))","min(HW err(1)/warn(2) (#))","max(HW err(1)/warn(2) (#))","std(HW err(1)/warn(2) (#))","med(HW err(1)/warn(2) (#))","min(Visibility (m))","max(Visibility (m))","std(Visibility (m))","med(Visibility (m))","min(Weather code (#))","max(Weather code (#))","std(Weather code (#))","med(Weather code (#))","min(Precip intensity (mm/h))","max(Precip intensity (mm/h))","std(Precip intensity (mm/h))","med(Precip intensity (mm/h))"
2016-06-09 04:40:00,2,47988,0,0.00,2,2,0,2,38085,50000,3465,49354,0,0,0,0,0.00,0.00,0.00,0.00
2016-06-09 04:50:00,2,47349,0,0.00,2,2,0,2,38440,50000,3430,48627,0,0,0,0,0.00,0.00,0.00,0.00
2016-06-09 05:00:00,2,48107,0,0.00,0,2,1,2,44783,50000,2060,48796,0,0,0,0,0.00,0.00,0.00,0.00
2016-06-09 05:10:00,1,47894,0,0.00,0,2,1,0,36234,50000,4300,50000,0,0,0,0,0.00,0.00,0.00,0.00
2016-06-09 05:20:00,2,45947,0,0.00,0,2,1,2,27909,50000,7271,50000,0,0,0,0,0.00,0.00,0.00,0.00
2016-06-09 05:30:00,2,49947,0,0.00,2,2,0,2,49467,50000,160,50000,0,0,0,0,0.00,0.00,0.00,0.00
2016-06-09 05:40:00,2,49564,0,0.00,2,2,0,2,46651,50000,992,50000,0,0,0,0,0.00,0.00,0.00,0.00
2016-06-09 05:50:00,2,49513,0,0.00,2,2,0,2,46938,50000,994,50000,0,0,0,0,0.00,0.00,0.00,0.00
2016-06-09 06:00:00,2,33364,38,0.37,2,2,0,2,16990,50000,12036,31260,0,61,25,51,0.00,0.80,0.32,0.28
2016-06-09 06:10:00,2,47881,10,0.00,2,2,0,2,41772,50000,3283,50000,0,51,20,0,0.00,0.00,0.00,0.00
2016-06-09 06:20:00,2,48058,0,0.00,2,2,0,2,42782,50000,2488,49627,0,0,0,0,0.00,0.00,0.00,0.00
2016-06-09 06:30:00,2,49736,0,0.00,2,2,0,2,47803,50000,651,50000,0,0,0,0,0.00,0.00,0.00,0.00
2016-06-09 06:40:00,2,48830,0,0.00,2,2,0,2,41327,50000,2591,50000,0,0,0,0,0.00,0.00,0.00,0.00
2016-06-09 06:50:00,2,49616,0,0.00,2,2,0,2,46845,50000,931,50000,0,0,0,0,0.00,0.00,0.00,0.00
2016-06-09 07:00:00,2,48740,0,0.00,2,2,0,2,44519,50000,1830,50000,0,0,0,0,0.00,0.00,0.00,0.00
2016-06-09 07:10:00,2,44357,0,0.00,2,2,0,2,29681,50000,6214,46548,0,0,0,0,0.00,0.00,0.00,0.00
2016-06-09 07:20:00,1,48129,0,0.00,0,2,1,1,37453,50000,3857,50000,0,0,0,0,0.00,0.00,0.00,0.00
2016-06-09 07:30:00,0,49444,0,0.00,0,2,1,0,44439,50000,1668,50000,0,0,0,0,0.00,0.00,0.00,0.00
2016-06-09 07:40:00,2,49909,0,0.00,2,2,0,2,49091,50000,273,50000,0,0,0,0,0.00,0.00,0.00,0.00
2016-06-09 07:50:00,2,49770,0,0.00,2,2,0,2,48013,50000,593,50000,0,0,0,0,0.00,0.00,0.00,0.00
2016-06-09 08:00:00,2,49989,0,0.00,2,2,0,2,49894,50000,32,50000,0,0,0,0,0.00,0.00,0.00,0.00
2016-06-09 08:10:00,2,49880,0,0.00,2,2,0,2,48804,50000,359,50000,0,0,0,0,0.00,0.00,0.00,0.00
2016-06-09 08:20:00,2,46301,0,0.00,0,2,1,2,39277,50000,4088,48181,0,0,0,0,0.00,0.00,0.00,0.00
2016-06-09 08:30:00,2,49298,0,0.00,2,2,0,2,45580,50000,1351,50000,0,0,0,0,0.00,0.00,0.00,0.00
2016-06-09 08:40:00,0,48791,0,0.00,0,0,0,0,45272,50000,1617,49888,0,0,0,0,0.00,0.00,0.00,0.00
2016-06-09 08:50:00,0,48931,0,0.00,0,0,0,0,44874,50000,1730,50000,0,0,0,0,0.00,0.00,0.00,0.00
2016-06-09 09:00:00,0,48684,0,0.00,0,0,0,0,44295,50000,2066,50000,0,0,0,0,0.00,0.00,0.00,0.00
2016-06-09 09:10:00,0,37226,61,0.53,0,0,0,0,28713,50000,5903,36353,61,61,0,61,0.05,1.20,0.33,0.42
2016-06-09 09:20:00,1,21922,61,1.98,0,2,1,2,16775,24790,2510,23150,61,61,0,61,0.65,4.40,1.26,1.43
2016-06-09 09:30:00,2,20337,61,3.95,2,2,0,2,13400,29724,4391,20440,61,61,0,61,2.05,7.90,1.95,3.30
2016-06-09 09:40:00,2,26174,61,3.65,2,2,0,2,20565,33882,4436,25140,61,61,0,61,0.85,8.20,2.03,3.52
2016-06-09 09:50:00,2,32195,61,1.15,2,2,0,2,26350,38069,3925,33235,61,61,0,61,0.45,2.30,0.59,1.05
2016-06-09 10:00:00,2,36483,61,2.02,2,2,0,2,30272,41399,3099,37028,61,61,0,61,0.55,3.50,0.98,2.08
2016-06-09 10:10:00,2,40276,61,2.44,2,2,0,2,20998,50000,9016,40912,61,61,0,61,1.30,4.95,1.05,2.40
2016-06-09 10:20:00,2,33598,61,3.76,2,2,0,2,22557,46763,7054,34086,61,61,0,61,1.15,9.75,2.60,3.10
2016-06-09 10:30:00,2,18906,61,5.94,2,2,0,2,14519,28436,3748,18076,61,61,0,61,1.70,8.80,2.21,6.10
2016-06-09 10:40:00,2,14535,61,5.01,2,2,0,2,11755,16346,1352,14909,61,61,0,61,3.10,7.15,1.34,4.82
2016-06-09 10:50:00,2,13869,61,5.54,2,2,0,2,12830,14792,687,14000,61,61,0,61,4.10,6.75,0.79,5.45
2016-06-09 11:00:00,2,14507,61,4.88,2,2,0,2,11072,19639,2658,13766,61,61,0,61,3.35,8.30,1.53,4.45
2016-06-09 11:10:00,2,11992,61,8.87,2,2,0,2,10440,14191,1368,11334,61,62,0,61,4.55,14.55,2.57,8.52
2016-06-09 11:20:00,2,14978,61,7.63,2,2,0,2,9481,20435,3469,14361,61,62,0,61,4.00,11.35,2.46,7.80
2016-06-09 11:30:00,2,17623,61,9.72,2,2,0,2,12650,28636,4003,17138,61,62,0,61,3.15,23.10,5.91,7.80
2016-06-09 11:40:00,2,19547,61,6.65,2,2,0,2,12960,26934,4812,19208,61,62,0,61,2.20,12.90,3.62,7.32
2016-06-09 11:50:00,2,21277,61,3.50,2,2,0,2,16117,28485,3685,21824,61,61,0,61,1.40,5.55,1.24,3.55
2016-06-09 12:00:00,2,34253,57,1.35,2,2,0,2,25271,49779,8309,32837,52,61,4,61,0.80,2.00,0.42,1.25
2016-06-09 12:10:00,2,31066,56,1.71,2,2,0,2,25815,36821,2995,30972,52,61,4,56,0.55,4.00,1.00,1.23
2016-06-09 12:20:00,2,27690,56,1.63,2,2,0,2,24726,33761,2654,26898,52,61,4,56,0.65,2.25,0.57,1.83
2016-06-09 12:30:00,2,32004,53,0.53,2,2,0,2,26022,39505,3880,31916,51,61,3,52,0.15,1.00,0.31,0.55
2016-06-09 12:40:00,2,45034,14,0.01,2,2,0,2,36215,50000,5510,48170,0,51,22,0,0.00,0.05,0.02,0.00
2016-06-09 12:50:00,2,47745,0,0.00,2,2,0,2,43201,50000,2377,48242,0,0,0,0,0.00,0.00,0.00,0.00
2016-06-09 13:00:00,2,50000,0,0.00,2,2,0,2,50000,50000,0,50000,0,0,0,0,0.00,0.00,0.00,0.00
2016-06-09 13:10:00,2,49314,0,0.00,2,2,0,2,44652,50000,1583,50000,0,0,0,0,0.00,0.00,0.00,0.00
2016-06-09 13:20:00,2,50000,0,0.00,2,2,0,2,50000,50000,0,50000,0,0,0,0,0.00,0.00,0.00,0.00
2016-06-09 13:30:00,2,49953,0,0.00,2,2,0,2,49533,50000,140,50000,0,0,0,0,0.00,0.00,0.00,0.00
2016-06-09 13:40:00,2,49477,0,0.00,0,2,1,2,44769,50000,1569,50000,0,0,0,0,0.00,0.00,0.00,0.00
2016-06-09 13:50:00,0,49787,0,0.00,0,0,0,0,47872,50000,638,50000,0,0,0,0,0.00,0.00,0.00,0.00
2016-06-09 14:00:00,0,49883,0,0.00,0,0,0,0,48826,50000,352,50000,0,0,0,0,0.00,0.00,0.00,0.00
2016-06-09 14:10:00,0,50000,0,0.00,0,0,0,0,50000,50000,0,50000,0,0,0,0,0.00,0.00,0.00,0.00
2016-06-09 14:20:00,0,50000,0,0.00,0,0,0,0,50000,50000,0,50000,0,0,0,0,0.00,0.00,0.00,0.00
2016-06-09 14:30:00,2,49974,0,0.00,0,2,1,2,49738,50000,79,50000,0,0,0,0,0.00,0.00,0.00,0.00
2016-06-09 14:40:00,0,49973,0,0.00,0,2,1,0,49727,50000,82,50000,0,0,0,0,0.00,0.00,0.00,0.00
2016-06-09 14:50:00,1,49444,0,0.00,0,2,1,2,46235,50000,1193,50000,0,0,0,0,0.00,0.00,0.00,0.00
2016-06-09 15:00:00,2,48551,0,0.00,2,2,0,2,43029,50000,2226,50000,0,0,0,0,0.00,0.00,0.00,0.00
2016-06-09 15:10:00,2,50000,0,0.00,2,2,0,2,50000,50000,0,50000,0,0,0,0,0.00,0.00,0.00,0.00
2016-06-09 15:20:00,2,49046,0,0.00,2,2,0,2,46114,50000,1463,49981,0,0,0,0,0.00,0.00,0.00,0.00
2016-06-09 15:30:00,2,49680,0,0.00,2,2,0,2,48464,50000,477,50000,0,0,0,0,0.00,0.00,0.00,0.00
2016-06-09 15:40:00,2,50000,0,0.00,2,2,0,2,50000,50000,0,50000,0,0,0,0,0.00,0.00,0.00,0.00
2016-06-09 15:50:00,2,49956,0,0.00,2,2,0,2,49556,50000,133,50000,0,0,0,0,0.00,0.00,0.00,0.00
2016-06-09 16:00:00,2,49772,0,0.00,2,2,0,2,48642,50000,458,50000,0,0,0,0,0.00,0.00,0.00,0.00
2016-06-09 16:10:00,2,49974,0,0.00,2,2,0,2,49736,50000,79,50000,0,0,0,0,0.00,0.00,0.00,0.00
2016-06-09 16:20:00,2,50000,0,0.00,2,2,0,2,50000,50000,0,50000,0,0,0,0,0.00,0.00,0.00,0.00
2016-06-09 16:30:00,2,50000,0,0.00,2,2,0,2,50000,50000,0,50000,0,0,0,0,0.00,0.00,0.00,0.00
2016-06-09 16:40:00,2,49203,0,0.00,2,2,0,2,46675,50000,1250,50000,0,0,0,0,0.00,0.00,0.00,0.00
2016-06-09 16:50:00,2,49856,0,0.00,2,2,0,2,49044,50000,300,50000,0,0,0,0,0.00,0.00,0.00,0.00
2016-06-09 17:00:00,2,49712,0,0.00,2,2,0,2,47117,50000,865,50000,0,0,0,0,0.00,0.00,0.00,0.00
2016-06-09 17:10:00,2,49647,0,0.00,2,2,0,2,47357,50000,808,50000,0,0,0,0,0.00,0.00,0.00,0.00
2016-06-09 17:20:00,2,50000,0,0.00,2,2,0,2,50000,50000,0,50000,0,0,0,0,0.00,0.00,0.00,0.00
2016-06-09 17:30:00,2,49606,0,0.00,2,2,0,2,46855,50000,931,50000,0,0,0,0,0.00,0.00,0.00,0.00
2016-06-09 17:40:00,2,49706,0,0.00,2,2,0,2,47399,50000,776,50000,0,0,0,0,0.00,0.00,0.00,0.00
2016-06-09 17:50:00,2,49518,0,0.00,2,2,0,2,47275,50000,873,50000,0,0,0,0,0.00,0.00,0.00,0.00
2016-06-09 18:00:00,2,50000,0,0.00,2,2,0,2,50000,50000,0,50000,0,0,0,0,0.00,0.00,0.00,0.00
2016-06-09 18:10:00,1,49044,0,0.00,0,2,1,2,42809,50000,2195,50000,0,0,0,0,0.00,0.00,0.00,0.00
2016-06-09 18:20:00,0,49878,0,0.00,0,0,0,0,48904,50000,344,50000,0,0,0,0,0.00,0.00,0.00,0.00
2016-06-09 18:30:00,2,48930,0,0.00,0,2,1,2,43929,50000,1788,49872,0,0,0,0,0.00,0.00,0.00,0.00
2016-06-09 18:40:00,2,49209,0,0.00,2,2,0,2,44066,50000,1845,50000,0,0,0,0,0.00,0.00,0.00,0.00
2016-06-09 18:50:00,2,49224,0,0.00,0,2,1,2,46631,50000,1290,50000,0,0,0,0,0.00,0.00,0.00,0.00
2016-06-09 19:00:00,1,48675,0,0.00,0,2,1,0,45826,50000,1524,49750,0,0,0,0,0.00,0.00,0.00,0.00
2016-06-09 19:10:00,0,48898,0,0.00,0,0,0,0,45195,50000,1531,49925,0,0,0,0,0.00,0.00,0.00,0.00
2016-06-09 19:20:00,1,45513,0,0.00,0,2,1,0,40172,50000,3569,46526,0,0,0,0,0.00,0.00,0.00,0.00
2016-06-09 19:30:00,2,49861,0,0.00,2,2,0,2,49369,50000,261,50000,0,0,0,0,0.00,0.00,0.00,0.00
2016-06-09 19:40:00,2,48034,0,0.00,0,2,1,2,43494,50000,2314,49633,0,0,0,0,0.00,0.00,0.00,0.00
2016-06-09 19:50:00,1,48522,0,0.00,0,2,1,0,45853,50000,1710,50000,0,0,0,0,0.00,0.00,0.00,0.00
2016-06-09 20:00:00,0,48821,0,0.00,0,0,0,0,44653,50000,1696,50000,0,0,0,0,0.00,0.00,0.00,0.00
2016-06-09 20:10:00,0,46892,0,0.00,0,0,0,0,41578,50000,3095,47972,0,0,0,0,0.00,0.00,0.00,0.00
2016-06-09 20:20:00,0,46607,0,0.00,0,0,0,0,40356,50000,3448,46385,0,0,0,0,0.00,0.00,0.00,0.00
2016-06-09 20:30:00,0,45518,0,0.00,0,0,0,0,34229,50000,5467,48664,0,0,0,0,0.00,0.00,0.00,0.00
2016-06-09 20:40:00,0,47150,0,0.00,0,0,0,0,39809,50000,3064,47940,0,0,0,0,0.00,0.00,0.00,0.00
2016-06-09 20:50:00,0,43601,0,0.00,0,0,0,0,33342,50000,5313,45578,0,0,0,0,0.00,0.00,0.00,0.00
2016-06-09 21:00:00,0,46756,0,0.00,0,0,0,0,33982,50000,4880,49538,0,0,0,0,0.00,0.00,0.00,0.00
2016-06-09 21:10:00,0,44155,0,0.00,0,0,0,0,36499,50000,3600,44112,0,0,0,0,0.00,0.00,0.00,0.00
2016-06-09 21:20:00,0,46587,0,0.00,0,0,0,0,38465,50000,4053,49218,0,0,0,0,0.00,0.00,0.00,0.00
2016-06-09 21:30:00,0,42113,0,0.00,0,0,0,0,32596,50000,7097,41915,0,0,0,0,0.00,0.00,0.00,0.00
2016-06-09 21:40:00,0,44378,0,0.00,0,0,0,0,37468,50000,4828,45266,0,0,0,0,0.00,0.00,0.00,0.00
2016-06-09 21:50:00,0,49554,0,0.00,0,2,1,0,47926,50000,795,50000,0,0,0,0,0.00,0.00,0.00,0.00
2016-06-09 22:00:00,1,41653,0,0.00,0,2,1,1,32514,50000,5645,42138,0,0,0,0,0.00,0.00,0.00,0.00
2016-06-09 22:10:00,1,47829,0,0.00,0,2,1,1,42621,50000,2741,49672,0,0,0,0,0.00,0.00,0.00,0.00
2016-06-09 22:20:00,1,47038,0,0.00,0,2,1,1,38630,50000,3674,49036,0,0,0,0,0.00,0.00,0.00,0.00
2016-06-09 22:30:00,0,44767,0,0.00,0,0,0,0,29584,50000,7368,48717,0,0,0,0,0.00,0.00,0.00,0.00
2016-06-09 22:40:00,1,42597,0,0.00,0,2,1,2,30913,50000,6255,44177,0,0,0,0,0.00,0.00,0.00,0.00
2016-06-09 22:50:00,0,45907,0,0.00,0,2,1,0,33489,50000,6332,49244,0,0,0,0,0.00,0.00,0.00,0.00
2016-06-09 23:00:00,1,38392,0,0.00,0,2,1,0,25705,49530,6711,37810,0,0,0,0,0.00,0.00,0.00,0.00
2016-06-09 23:10:00,1,42083,0,0.00,0,2,1,2,29346,50000,6359,42294,0,0,0,0,0.00,0.00,0.00,0.00
2016-06-09 23:20:00,1,41199,0,0.00,0,2,1,2,28604,48199,7249,44785,0,0,0,0,0.00,0.00,0.00,0.00
2016-06-09 23:30:00,2,43158,0,0.00,2,2,0,2,33870,50000,5584,43086,0,0,0,0,0.00,0.00,0.00,0.00
2016-06-09 23:40:00,2,36574,0,0.00,2,2,0,2,24302,50000,9625,34242,0,0,0,0,0.00,0.00,0.00,0.00
2016-06-09 23:50:00,2,33102,0,0.00,2,2,0,2,22109,47609,7294,31596,0,0,0,0,0.00,0.00,0.00,0.00
